AE7QG Weather Reports


time (UTC)temp
F
wind
direction
speed
knots
gust
knots
rain 1hr
in
rain 24hr
in
rain mn
in
humidity
%
barometer
mb
20240222110039 34 205 0.0 0.0 0.00 0.05 0.00 94 1021.9
20240222104536 34 205 0.0 0.0 0.00 0.05 0.00 94 1021.9
20240222103055 34 205 0.0 0.0 0.00 0.05 0.00 94 1022.0
20240222101539 34 205 0.0 0.0 0.00 0.05 0.00 94 1021.8
20240222100036 34 205 0.0 0.0 0.00 0.05 0.00 94 1021.7
20240222094533 34 205 0.0 0.0 0.00 0.05 0.00 94 1021.7
20240222093032 34 205 0.0 0.0 0.00 0.05 0.00 94 1021.7
20240222091532 34 205 0.0 0.0 0.00 0.05 0.00 94 1021.5
20240222090028 34 205 0.0 0.0 0.00 0.05 0.00 94 1021.4
20240222084532 34 205 0.0 0.0 0.00 0.05 0.00 94 1021.5
20240222083035 34 205 0.0 0.0 0.00 0.05 0.00 94 1021.4
20240222081525 34 205 0.0 0.0 0.00 0.05 0.00 94 1021.4
20240222080025 34 205 0.0 0.0 0.00 0.05 0.00 94 1021.3
20240222074523 34 205 0.0 0.9 0.00 0.05 0.00 94 1021.0
20240222073023 34 205 0.0 0.0 0.00 0.05 0.00 94 1021.0
20240222071520 34 205 0.0 0.0 0.00 0.05 0.00 93 1021.0
20240222070021 34 205 0.0 0.0 0.00 0.05 0.05 93 1021.0
20240222064518 33 205 0.0 0.0 0.00 0.05 0.05 93 1020.9
20240222063017 33 205 0.0 0.0 0.00 0.05 0.05 93 1020.8
20240222061515 33 205 0.0 0.0 0.00 0.05 0.05 93 1020.5
20240222060014 33 205 0.0 0.0 0.00 0.05 0.05 93 1020.5
20240222054513 33 205 0.0 0.0 0.00 0.05 0.05 93 1020.5
20240222053012 33 205 0.0 0.0 0.00 0.05 0.05 93 1020.2
20240222051510 33 205 0.0 0.0 0.00 0.05 0.05 93 1020.1
20240222050029 33 205 0.0 0.0 0.00 0.05 0.05 93 1019.8
20240222044508 34 205 0.0 0.0 0.00 0.05 0.05 93 1019.6
20240222043006 34 205 0.0 0.0 0.00 0.05 0.05 93 1019.4
20240222041504 34 205 0.0 0.0 0.00 0.05 0.05 93 1019.3
20240222040003 34 205 0.0 0.0 0.00 0.05 0.05 93 1019.1
20240222034502 34 205 0.0 0.9 0.00 0.05 0.05 93 1019.0
20240222033000 35 205 0.9 1.7 0.00 0.05 0.05 93 1018.8
20240222031601 34 205 0.9 1.7 0.00 0.05 0.05 93 1018.6
20240222030058 34 205 0.0 0.0 0.00 0.05 0.05 93 1018.4
20240222024557 34 205 0.0 0.0 0.00 0.05 0.05 93 1018.2
20240222023105 34 205 0.0 0.0 0.01 0.05 0.05 93 1018.1
20240222021556 34 204 0.0 0.0 0.01 0.05 0.05 93 1017.8
20240222020052 35 204 0.0 0.0 0.01 0.05 0.05 93 1017.6
20240222014551 35 204 0.0 0.0 0.01 0.05 0.05 92 1017.5
20240222013050 36 205 0.0 0.0 0.00 0.04 0.04 93 1017.2
20240222011552 37 205 0.0 0.0 0.00 0.04 0.04 92 1016.8
20240222010047 38 205 0.0 0.0 0.00 0.04 0.04 93 1016.6
20240222004549 39 205 0.0 0.0 0.00 0.04 0.04 92 1016.4
20240222003044 39 204 0.0 0.0 0.03 0.04 0.04 92 1016.4
20240222001543 40 205 0.0 2.6 0.03 0.04 0.04 92 1016.4
20240222000042 40 204 0.0 3.5 0.03 0.04 0.04 92 1016.2
20240221234558 41 173 0.0 2.6 0.03 0.04 0.04 90 1015.9
20240221233038 43 173 0.0 0.9 0.00 0.01 0.01 84 1015.5
20240221231539 44 173 0.0 2.6 0.00 0.01 0.01 81 1015.0
20240221230036 45 160 0.9 5.2 0.00 0.01 0.01 80 1014.9
20240221224535 45 147 0.0 3.5 0.00 0.01 0.01 81 1014.8
20240221223039 46 126 0.9 3.5 0.00 0.01 0.01 80 1014.6
20240221221531 45 167 0.0 4.3 0.00 0.01 0.01 82 1014.6
20240221220029 44 166 0.0 2.6 0.00 0.01 0.01 84 1014.6
20240221214528 43 141 0.0 3.5 0.00 0.01 0.01 84 1014.6
20240221213025 42 117 0.0 2.6 0.00 0.01 0.01 85 1014.5
20240221211524 42 137 0.0 0.9 0.00 0.01 0.01 86 1014.5
20240221210040 42 140 0.0 1.7 0.00 0.01 0.01 86 1014.6
20240221204522 42 140 0.0 0.0 0.00 0.01 0.01 85 1014.6
20240221203022 42 140 0.0 1.7 0.00 0.01 0.01 85 1014.7
20240221201519 41 140 0.0 0.9 0.00 0.01 0.01 87 1014.8
20240221200017 41 140 0.0 0.9 0.00 0.01 0.01 89 1014.9
20240221194527 39 140 0.0 1.7 0.00 0.01 0.01 90 1015.0
20240221193012 39 94 0.0 2.6 0.00 0.01 0.01 91 1015.0
20240221191509 38 156 0.0 2.6 0.00 0.01 0.01 93 1015.3
20240221190013 37 117 0.0 1.7 0.00 0.02 0.01 94 1015.2
20240221184504 36 117 0.0 0.0 0.00 0.02 0.01 94 1015.2
20240221183003 35 117 0.0 0.9 0.00 0.02 0.01 94 1015.2
20240221181502 35 117 0.0 2.6 0.00 0.02 0.01 94 1015.2
20240221180107 34 117 0.0 0.9 0.00 0.02 0.01 94 1015.2
20240221174601 34 117 0.0 0.0 0.00 0.03 0.01 94 1015.2
20240221173109 34 117 0.0 1.7 0.00 0.03 0.01 94 1015.1
20240221171600 34 117 0.0 1.7 0.00 0.03 0.01 94 1015.1
20240221170103 34 117 0.0 0.9 0.00 0.03 0.01 94 1015.0
20240221164558 34 117 0.0 0.9 0.00 0.03 0.01 94 1015.0
20240221163053 34 117 0.0 0.0 0.00 0.03 0.01 94 1014.9
20240221161558 34 117 0.0 0.0 0.00 0.03 0.01 94 1014.9
20240221160053 33 117 0.0 0.0 0.00 0.03 0.01 94 1014.7
20240221154550 33 117 0.0 0.0 0.00 0.03 0.01 94 1014.7
20240221153049 33 117 0.0 0.0 0.00 0.03 0.01 94 1014.5
20240221151552 32 117 0.0 0.0 0.00 0.03 0.01 94 1014.4
20240221150053 32 117 0.0 0.0 0.00 0.03 0.01 94 1014.2
20240221144550 32 117 0.0 0.0 0.00 0.03 0.01 94 1014.0
20240221143046 32 117 0.0 0.0 0.01 0.03 0.01 94 1013.9
20240221141545 32 117 0.0 0.0 0.01 0.03 0.01 93 1013.7
20240221140044 33 117 0.0 0.0 0.01 0.03 0.01 94 1013.7
20240221134545 33 117 0.0 0.0 0.01 0.03 0.01 94 1013.9
20240221133043 33 117 0.0 0.0 0.00 0.02 0.00 94 1013.7
20240221131543 33 117 0.0 0.0 0.00 0.02 0.00 94 1013.9
20240221130042 33 117 0.0 0.0 0.00 0.02 0.00 94 1014.0
20240221124541 33 117 0.0 0.0 0.00 0.02 0.00 94 1014.0
20240221123041 33 117 0.0 0.0 0.00 0.02 0.00 94 1014.0
20240221121541 33 117 0.0 0.0 0.00 0.02 0.00 94 1013.9
20240221120037 33 117 0.0 0.0 0.00 0.02 0.00 93 1014.0
20240221114537 33 117 0.0 0.0 0.00 0.02 0.00 94 1014.0
20240221113036 33 117 0.0 0.0 0.00 0.02 0.00 93 1014.0
20240221111539 33 117 0.0 0.0 0.00 0.02 0.00 93 1014.0